Date,TemperatureHighF,TemperatureAvgF,TemperatureLowF,DewpointHighF,DewpointAvgF,DewpointLowF,HumidityHigh,HumidityAvg,HumidityLow,PressureMaxIn,PressureMinIn,WindSpeedMaxMPH,WindSpeedAvgMPH,GustSpeedMaxMPH,PrecipitationSumIn
2013-10-1,84,71,58,72,61,39,95,71,49,30.15,30.03,12,3,12,0.00
2013-10-2,79,71,64,70,62,43,97,75,46,30.15,30.09,10,2,10,0.00
2013-10-3,88,73,67,77,68,61,97,84,68,30.12,30.03,13,2,13,0.00
2013-10-4,87,76,64,75,67,58,97,74,68,30.12,30.03,12,3,12,0.00
2013-10-5,78,74,69,73,69,66,97,85,70,30.09,29.95,5,2,8,1.30
2013-10-6,70,62,54,70,60,51,97,94,80,29.95,29.80,13,4,13,1.58
2013-10-10,81,66,53,70,58,47,97,77,68,30.21,30.09,3,1,5,0.00
2013-10-11,85,70,53,73,60,46,90,73,67,30.12,30.03,6,1,6,0.00
2013-10-12,86,70,52,73,61,50,97,76,67,30.15,30.03,6,2,6,0.00
2013-10-15,68,68,68,60,60,60,75,75,75,30.06,30.06,0,0,2,0.00
2013-10-18,65,57,50,51,44,30,100,65,40,29.70,29.46,13,5,13,0.00
2013-10-19,54,52,49,42,40,39,70,65,64,29.73,29.58,13,5,13,0.00
2013-10-20,57,53,46,44,42,37,87,68,63,29.91,29.70,8,3,12,0.00
2013-10-21,78,56,44,64,28,8,100,40,17,30.05,29.91,6,2,8,0.00
2013-10-22,84,57,36,68,33,8,88,44,16,30.08,29.98,6,1,10,0.00
2013-10-23,83,66,55,68,34,14,65,36,16,30.08,29.93,9,2,12,0.00
2013-10-24,84,69,56,68,43,12,65,44,15,30.08,29.99,9,2,13,0.00
2013-10-27,47,46,44,7,6,6,20,19,19,30.02,29.96,5,2,5,0.00
2013-10-28,56,47,38,43,28,4,70,53,19,30.02,29.93,9,3,14,0.00
2013-10-29,56,45,35,44,25,0,67,49,21,30.02,29.79,9,4,17,0.00
2013-10-31,64,62,62,61,57,54,97,83,73,29.86,29.47,18,9,18,1.13